Location: B?jaj?g
(11.7167°N, 92.6667°E)
Time: 12:31:05
(UTC+00:00)

Cosmos 1814 Rocket - Pass Details

Date: 18 September 2020
Orbit: 744 x 788 km, 74.1° (Epoch: 23 October)

Event Time Altitude Azimuth Distance (km) Brightness Sun altitude
Exits shadow 22:33:23 - 201° (SSW) 3,170 6.9 -16.8°
Reaches altitude 10° 22:35:45 10° 205° (SSW) 2,256 6.1 -16.2°
Maximum altitude 22:40:45 57° 283° (WNW) 882 4.0 -15.0°
Drops below altitude 10° 22:45:49 10° 2° (N) 2,277 6.5 -13.7°
Sets 22:48:14 0° 6° (N) 3,209 7.4 -13.1°
